Regional Weather Roundup
Issued by NWS Northern Indiana

Home | Current Version | Previous Version | Text Only | Print | Product List | Glossary On
Versions: 1 2 3 4 5 6 7 8 9 10 11 12 13 14 15 16 17 18 19 20 21 22 23 24 25 26 27 28 29 30 31 32 33 34 35 36 37 38 39 40 41 42 43 44 45 46 47 48 49 50
574
ASUS43 KIWX 031210
RWRIWX

KIWX WEATHER ROUNDUP
NATIONAL WEATHER SERVICE NORTHERN INDIANA
700 AM EST SAT DEC 03 2016

NOTE: "FAIR" INDICATES FEW OR NO CLOUDS BELOW 12,000 FEET WITH NO
SIGNIFICANT WEATHER AND/OR OBSTRUCTIONS TO VISIBILITY.

* THESE STATIONS ARE NOT UNDER NWS QUALITY CONTROL. THEY ALSO MAY NOT
  REPORT WEATHER SUCH AS PRECIPITATION OR FOG.

INZ001>027-031300-
NORTHERN INDIANA

CITY           SKY/WX    TMP DP  RH WIND       PRES   REMARKS
GARY*          CLOUDY    34  25  69 W7        30.36R WCI  28
VALPARAISO     CLOUDY    33  23  66 W9        30.35R WCI  25
6HR MIN TEMP:  33; 6HR MAX TEMP:  36;

MICHIGAN CITY* CLOUDY    32  27  80 SW7       30.34S WCI  26
LAPORTE*       CLOUDY    34  29  81 W9        30.34S WCI  27
6HR MIN TEMP:  34; 6HR MAX TEMP:  37;

KNOX*          CLOUDY    32  10  40 W7        30.34S WCI  26
SOUTH BEND     CLOUDY    34  27  75 W8        30.34R WCI  27
6HR MIN TEMP:  33; 6HR MAX TEMP:  35;

GOSHEN         CLOUDY    34  26  72 SW9       30.32R WCI  27
6HR MIN TEMP:  34; 6HR MAX TEMP:  35;

MONTICELLO*    CLOUDY    34  26  72 CALM      30.33F
6HR MIN TEMP:  34; 6HR MAX TEMP:  36;

LOGANSPORT*    CLOUDY    34  28  80 NW3       30.34F
ROCHESTER*     CLOUDY    36  28  75 W5        30.34S
WARSAW*        CLOUDY    32  25  74 W7        30.33R WCI  26
ANGOLA*        CLOUDY    36  28  75 W3        30.30R
FORT WAYNE     CLOUDY    35  27  72 W9        30.33R WCI  28
6HR MIN TEMP:  35; 6HR MAX TEMP:  36;

HUNTINGTON*    CLOUDY    34  26  74 W5        30.34R WCI  30
6HR MIN TEMP:  34; 6HR MAX TEMP:  35;

PERU/GRISSOM   CLOUDY    35  28  76 NW6       30.32R WCI  29
6HR MIN TEMP:  34; 6HR MAX TEMP:  36;

MARION*        CLOUDY    34  31  87 W7        30.34S WCI  28
6HR MIN TEMP:  25; 6HR MAX TEMP:  89;


$$
INZ028>050-031300-
CENTRAL INDIANA

CITY           SKY/WX    TMP DP  RH WIND       PRES   REMARKS
LAFAYETTE      CLOUDY    33  28  81 W8        30.35S WCI  26
6HR MIN TEMP:  33; 6HR MAX TEMP:  36;

KOKOMO*        CLOUDY    35  29  78 N5        30.34R WCI  31
6HR MIN TEMP:  35; 6HR MAX TEMP:  36;

MUNCIE*        CLOUDY    37  28  70 W7        30.33R
6HR MIN TEMP:  37; 6HR MAX TEMP:  38;

INDIANAPOLIS   CLOUDY    37  28  70 W12       30.34S
6HR MIN TEMP:  37; 6HR MAX TEMP:  37;


$$
MIZ043>046-050>051-056>058-064>065-071>073-077>080-031300-
SOUTHWEST LOWER MICHIGAN

CITY           SKY/WX    TMP DP  RH WIND       PRES   REMARKS
BATTLE CREEK   CLOUDY    35  29  78 W6        30.30R WCI  30
6HR MIN TEMP:  34; 6HR MAX TEMP:  35;

BENTON HARBOR  CLOUDY    37  26  64 SW6       30.32R
6HR MIN TEMP:  36; 6HR MAX TEMP:  38;

COLDWATER*     CLOUDY    35  30  83 W3        30.29S
6HR MIN TEMP:  34; 6HR MAX TEMP:  36;

HILLSDALE*     CLOUDY    32  30  93 CALM      30.28R
HOLLAND        CLOUDY    37  29  72 W7        30.30R
6HR MIN TEMP:  37; 6HR MAX TEMP:  37;

GRAND RAPIDS   CLOUDY    35  28  75 W7        30.30R WCI  29
6HR MIN TEMP:  34; 6HR MAX TEMP:  36; 6HR PCP: TRACE;

KALAMAZOO      CLOUDY    36  28  73 W6        30.30R
6HR MIN TEMP:  35; 6HR MAX TEMP:  36;

STURGIS*       CLOUDY    35  27  70 W5        30.30R WCI  31
6HR MIN TEMP:  35; 6HR MAX TEMP:  36;

THREE RIVERS*  CLOUDY    36  29  76 W5        30.31S
6HR MIN TEMP:  36; 6HR MAX TEMP:  37;


$$
OHZ001>008-015>018-024>025-031300-
NORTHWEST OHIO

CITY           SKY/WX    TMP DP  RH WIND       PRES   REMARKS
WAUSEON*       CLOUDY    36  32  87 W6        30.30S
DEFIANCE       CLOUDY    36  28  73 CALM      30.32R
6HR MIN TEMP:  34; 6HR MAX TEMP:  36;

FINDLAY        CLOUDY    34  28  79 W6        30.31R WCI  29
6HR MIN TEMP:  29; 6HR MAX TEMP:  34;

TOLEDO EXPRESS CLOUDY    35  31  85 W7        30.30R WCI  29
6HR MIN TEMP:  35; 6HR MAX TEMP:  36;

TOLEDO METCALF CLOUDY    37  31  78 W10       30.31R
6HR MIN TEMP:  36; 6HR MAX TEMP:  37;

LIMA           CLOUDY    35  28  75 NW9       30.31R WCI  28
6HR MIN TEMP:  33; 6HR MAX TEMP:  36;


$$
AND FOR LAKE MICHIGAN COASTAL AND OPEN LAKE BUOY OBSERVATIONS

STATION/POSITION TEMP    WIND        PRES    VSBY  WAVE
                 AIR SEA DIR/SP/G                  HT/PER
                 (F)     (DEG/KT/KT) (MB)    (MI)  (FT/S)
CALUMET HARBOR    33     270/  5/ 10 1027.1R
MICHIGAN CITY     35     230/ 14/ 16   N/A
BURNS HARBOR      35     260/ 11/ 14 1028.1R
SAINT JOSEPH      38     260/  8/ 13 1026.8
SOUTH LAKE BUOY   35 49  270/ 10/ 12 1026.9F         1/ 5

$$
&&




USA.gov is the U.S. government's official web portal to all federal, state and local government web resources and services.